Albany, VT

4:58 AM EST on February 06, 2016 (GMT -0500)
Newport State

Weather History for KEFK - November, 2012

Change the Weather History Date:

Tuesday, November 27, 2012

  Actual Average Record
Temperature  
Mean Temperature 22 °F -  
Max Temperature 32 °F 35 °F 58 °F (2015)
Min Temperature 11 °F 21 °F -7 °F (1949)
Degree Days  
Heating Degree Days 44    
Moisture  
Dew Point 16 °F    
Average Humidity 75    
Maximum Humidity 82    
Minimum Humidity 64    
Precipitation  
Precipitation 0.00 in - - ()
Sea Level Pressure  
Sea Level Pressure 30.24 in    
Wind  
Wind Speed 2 mph (SW)    
Max Wind Speed 7 mph    
Max Gust Speed -    
Visibility 9 miles    
Events Snow    
Averages and records for this station are not official NWS values.
T = Trace of Precipitation, MM = Missing Value Source: NWS Daily Summary

Daily Weather History Graph

Daily Weather History Graph

Search for Another Location

Airport or City:

Trip Planner

Search our weather history database for the weather conditions in past years. The results will help you decide how hot, cold, wet, or windy it might be!

Date:

Astronomy

Nov. 27, 2012 Rise Set
Actual Time 7:02 AM EST 4:10 PM EST
Civil Twilight 6:29 AM EST 4:43 PM EST
Nautical Twilight 5:53 AM EST 5:19 PM EST
Astronomical Twilight 5:18 AM EST 5:55 PM EST
Moon 3:40 PM EST (11/27) 6:03 AM EST (11/27)
Length of Visible Light 10h 13m
Length of Day
9h 08m
Waxing Gibbous, 99% of the Moon is Illuminated
Nov 27
Waxing Gibbous
Nov 28
Full
Dec 6
Last Quarter
Dec 13
New
Dec 20
First Quarter

Hourly Weather History & Observations

Time (EST) Temp. Windchill Dew Point Humidity Pressure Visibility Wind Dir Wind Speed Gust Speed Precip Events Conditions
12:15 AM 13.1 °F 5.4 °F 7.2 °F 77% 30.20 in 10.0 mi SW 4.6 mph - N/A   Clear
12:35 AM 13.8 °F 8.0 °F 8.6 °F 80% 30.20 in 10.0 mi SW 3.5 mph - N/A   Clear
12:55 AM 14.7 °F - 8.8 °F 77% 30.20 in 10.0 mi Calm Calm - N/A   Clear
1:15 AM 13.8 °F - 8.1 °F 78% 30.21 in 10.0 mi Calm Calm - N/A   Clear
1:35 AM 12.7 °F - 7.2 °F 78% 30.21 in 10.0 mi Calm Calm - N/A   Scattered Clouds
1:55 AM 12.6 °F - 7.2 °F 79% 30.22 in 10.0 mi Calm Calm - N/A   Scattered Clouds
2:15 AM 11.7 °F - 6.3 °F 79% 30.23 in 10.0 mi Calm Calm - N/A   Scattered Clouds
2:55 AM 14.4 °F 4.3 °F 8.2 °F 77% 30.23 in 10.0 mi SW 6.9 mph - N/A   Mostly Cloudy
3:15 AM 15.4 °F 6.8 °F 9.5 °F 77% 30.22 in 10.0 mi SW 5.8 mph - N/A   Overcast
3:35 AM 16.5 °F 9.4 °F 10.2 °F 76% 30.22 in 10.0 mi SSW 4.6 mph - N/A   Overcast
3:55 AM 18.5 °F 13.3 °F 11.8 °F 75% 30.22 in 10.0 mi South 3.5 mph - N/A   Overcast
4:15 AM 18.9 °F - 11.3 °F 72% 30.22 in 10.0 mi Calm Calm - N/A   Overcast
4:35 AM 18.9 °F - 12.0 °F 75% 30.22 in 10.0 mi Calm Calm - N/A   Overcast
4:55 AM 18.3 °F 13.1 °F 11.7 °F 75% 30.22 in 10.0 mi SSW 3.5 mph - N/A   Overcast
5:15 AM 18.7 °F 13.5 °F 12.2 °F 76% 30.22 in 10.0 mi SSW 3.5 mph - N/A   Overcast
5:35 AM 19.4 °F - 12.6 °F 75% 30.21 in 10.0 mi Calm Calm - N/A   Overcast
5:55 AM 20.1 °F - 13.1 °F 74% 30.22 in 10.0 mi Calm Calm - N/A   Overcast
6:15 AM 20.7 °F 15.8 °F 13.1 °F 73% 30.22 in 10.0 mi South 3.5 mph - N/A   Overcast
6:55 AM 20.7 °F 15.8 °F 13.8 °F 75% 30.23 in 10.0 mi South 3.5 mph - N/A   Overcast
7:35 AM 21.0 °F - 14.0 °F 74% 30.24 in 10.0 mi Calm Calm - N/A   Overcast
7:55 AM 21.7 °F 17.0 °F 14.5 °F 74% 30.24 in 10.0 mi SSW 3.5 mph - N/A   Overcast
8:15 AM 22.1 °F - 14.5 °F 73% 30.25 in 10.0 mi Calm Calm - N/A   Overcast
8:35 AM 22.8 °F - 15.6 °F 74% 30.25 in 4.0 mi Calm Calm - N/A Snow Light Snow
8:55 AM 23.5 °F - 16.5 °F 75% 30.25 in 3.0 mi Calm Calm - N/A Snow Light Snow
9:15 AM 24.1 °F 19.7 °F 17.4 °F 76% 30.25 in 2.5 mi SSW 3.5 mph - N/A Snow Light Snow
9:35 AM 24.8 °F - 17.6 °F 74% 30.25 in 4.0 mi Calm Calm - N/A Snow Light Snow
9:55 AM 25.5 °F - 18.0 °F 73% 30.26 in 5.0 mi Calm Calm - N/A Snow Light Snow
10:35 AM 27.3 °F - 19.2 °F 72% 30.26 in 2.0 mi Calm Calm - N/A Snow Light Snow
10:55 AM 27.5 °F - 19.8 °F 73% 30.25 in 3.0 mi Calm Calm - N/A Snow Light Snow
11:15 AM 27.5 °F - 20.1 °F 74% 30.26 in 10.0 mi Calm Calm - N/A   Overcast
11:35 AM 28.9 °F - 20.7 °F 71% 30.25 in 7.0 mi Calm Calm - N/A   Overcast
11:55 AM 29.5 °F 25.9 °F 20.8 °F 70% 30.25 in 7.0 mi SE 3.5 mph - N/A Snow Light Snow
12:15 PM 30.2 °F 26.7 °F 20.8 °F 68% 30.24 in 10.0 mi SE 3.5 mph - N/A   Overcast
12:35 PM 30.6 °F 27.1 °F 20.5 °F 66% 30.24 in 10.0 mi South 3.5 mph - N/A   Overcast
12:55 PM 30.9 °F - 21.0 °F 67% 30.24 in 10.0 mi Calm Calm - N/A   Overcast
1:15 PM 31.6 °F - 20.7 °F 64% 30.23 in 10.0 mi Calm Calm - N/A   Overcast
1:35 PM 31.8 °F - 21.2 °F 65% 30.23 in 10.0 mi Calm Calm - N/A   Overcast
1:55 PM 32.0 °F - 21.2 °F 64% 30.23 in 10.0 mi Calm Calm - N/A   Overcast
2:15 PM 32.0 °F - 21.2 °F 64% 30.23 in 10.0 mi Calm Calm - N/A   Overcast
2:35 PM 32.0 °F - 21.6 °F 65% 30.23 in 10.0 mi Calm Calm - N/A   Overcast
2:55 PM 32.0 °F - 21.7 °F 66% 30.23 in 10.0 mi Calm Calm - N/A   Overcast
3:15 PM 31.8 °F - 21.6 °F 66% 30.23 in 10.0 mi Calm Calm - N/A   Overcast
3:35 PM 30.4 °F - 21.6 °F 70% 30.23 in 10.0 mi Calm Calm - N/A   Overcast
3:55 PM 30.4 °F - 21.0 °F 68% 30.23 in 10.0 mi Calm Calm - N/A   Mostly Cloudy
4:15 PM 29.7 °F 26.1 °F 21.4 °F 71% 30.22 in 10.0 mi North 3.5 mph - N/A   Scattered Clouds
4:35 PM 29.8 °F - 21.7 °F 72% 30.23 in 10.0 mi Calm Calm - N/A   Clear
4:55 PM 26.8 °F - 18.7 °F 72% 30.24 in 10.0 mi Calm Calm - N/A   Clear
5:15 PM 27.3 °F - 19.8 °F 73% 30.24 in 10.0 mi Calm Calm - N/A   Clear
5:35 PM 24.3 °F - 19.6 °F 82% 30.25 in 10.0 mi Calm Calm - N/A   Clear
5:55 PM 26.1 °F - 19.0 °F 75% 30.25 in 10.0 mi Calm Calm - N/A   Clear
6:15 PM 25.9 °F - 21.0 °F 82% 30.25 in 10.0 mi Calm Calm - N/A   Clear
6:35 PM 24.8 °F 19.1 °F 19.9 °F 82% 30.25 in 10.0 mi SW 4.6 mph - N/A   Clear
6:55 PM 24.3 °F 18.4 °F 19.4 °F 82% 30.26 in 10.0 mi SW 4.6 mph - N/A   Clear
7:15 PM 18.1 °F - 12.4 °F 78% 30.26 in 10.0 mi Calm Calm - N/A   Clear
7:35 PM 21.6 °F - 16.9 °F 82% 30.25 in 5.0 mi Calm Calm - N/A   Clear
7:55 PM 22.1 °F 17.4 °F 17.2 °F 82% 30.26 in 7.0 mi WSW 3.5 mph - N/A   Clear
8:15 PM 21.6 °F 16.8 °F 16.5 °F 81% 30.26 in 7.0 mi WSW 3.5 mph - N/A   Clear
8:35 PM 22.5 °F 17.8 °F 17.6 °F 82% 30.26 in 7.0 mi SW 3.5 mph - N/A   Clear
8:55 PM 22.1 °F 17.4 °F 17.1 °F 81% 30.26 in 7.0 mi SW 3.5 mph - N/A   Clear
9:15 PM 19.0 °F - 13.8 °F 80% 30.26 in 7.0 mi Calm Calm - N/A   Clear
9:35 PM 20.8 °F 16.0 °F 15.8 °F 81% 30.25 in 5.0 mi SW 3.5 mph - N/A   Haze
9:55 PM 19.2 °F 14.1 °F 14.0 °F 80% 30.25 in 7.0 mi SW 3.5 mph - N/A   Clear
10:15 PM 18.5 °F 13.3 °F 13.1 °F 79% 30.26 in 7.0 mi SW 3.5 mph - N/A   Clear
10:35 PM 19.2 °F 14.1 °F 14.0 °F 80% 30.25 in 7.0 mi SW 3.5 mph - N/A   Clear
10:55 PM 18.3 °F - 12.7 °F 79% 30.25 in 7.0 mi Calm Calm - N/A   Clear
11:15 PM 17.8 °F 12.5 °F 12.6 °F 80% 30.25 in 7.0 mi SW 3.5 mph - N/A   Clear
11:35 PM 16.7 °F 9.6 °F 11.1 °F 79% 30.24 in 7.0 mi SSW 4.6 mph - N/A   Clear
11:55 PM 17.4 °F 12.1 °F 12.0 °F 79% 30.24 in 7.0 mi SW 3.5 mph - N/A   Clear